Slayton, MN

4:43 AM CDT on September 25, 2016 (GMT -0500)
Slayton

Weather History for KDVP - November, 2011

Change the Weather History Date:

Saturday, November 12, 2011

  Actual Average (KOTG) Record (KOTG)
Temperature  
Mean Temperature 46 °F -  
Max Temperature 59 °F 41 °F 68 °F (1971)
Min Temperature 34 °F 25 °F -2 °F (1986)
Degree Days  
Heating Degree Days 18    
Moisture  
Dew Point 24 °F    
Average Humidity 44    
Maximum Humidity 69    
Minimum Humidity 25    
Precipitation  
Precipitation 0.00 in - - ()
Sea Level Pressure  
Sea Level Pressure 29.43 in    
Wind  
Wind Speed 15 mph (South)    
Max Wind Speed 25 mph    
Max Gust Speed 32 mph    
Visibility 10 miles    
Events      
Averages and records for this station are not official NWS values.
T = Trace of Precipitation, MM = Missing Value Source: NWS Daily Summary

Daily Weather History Graph

Daily Weather History Graph

Search for Another Location

Airport or City:

Trip Planner

Search our weather history database for the weather conditions in past years. The results will help you decide how hot, cold, wet, or windy it might be!

Date:

Astronomy

Nov. 12, 2011 Rise Set
Actual Time 7:13 AM CST 5:00 PM CST
Civil Twilight 6:42 AM CST 5:31 PM CST
Nautical Twilight 6:08 AM CST 6:05 PM CST
Astronomical Twilight 5:34 AM CST 6:39 PM CST
Moon 6:12 PM CST (11/12) 9:00 AM CST (11/12)
Length of Visible Light 10h 48m
Length of Day
9h 46m
Full, 97% of the Moon is Illuminated
Nov 12
Full
Nov 18
Last Quarter
Nov 25
New
Dec 2
First Quarter
Dec 10
Full

Hourly Weather History & Observations

Time (CST) Temp. Windchill Dew Point Humidity Pressure Visibility Wind Dir Wind Speed Gust Speed Precip Events Conditions
12:15 AM 37.2 °F 29.1 °F 20.5 °F 51% 29.60 in 10.0 mi SW 12.7 mph - N/A   Clear
12:35 AM 39.0 °F 31.0 °F 19.9 °F 46% 29.60 in 10.0 mi SW 13.8 mph - N/A   Clear
12:55 AM 37.9 °F 30.5 °F 19.4 °F 47% 29.60 in 10.0 mi SW 11.5 mph - N/A   Clear
1:15 AM 38.1 °F 29.5 °F 19.0 °F 46% 29.59 in 10.0 mi SSW 15.0 mph - N/A   Clear
1:35 AM 38.1 °F 30.7 °F 19.0 °F 46% 29.59 in 10.0 mi SSW 11.5 mph - N/A   Clear
1:55 AM 37.9 °F 30.5 °F 18.9 °F 46% 29.58 in 10.0 mi SSW 11.5 mph - N/A   Clear
2:15 AM 37.4 °F 30.3 °F 18.5 °F 46% 29.58 in 10.0 mi SSW 10.4 mph - N/A   Clear
2:35 AM 36.5 °F 28.7 °F 18.5 °F 48% 29.57 in 10.0 mi SSW 11.5 mph - N/A   Clear
2:55 AM 35.8 °F 26.5 °F 18.5 °F 50% 29.57 in 10.0 mi SSW 15.0 mph - N/A   Clear
3:55 AM 35.6 °F 26.2 °F 18.1 °F 49% 29.55 in 10.0 mi SSW 15.0 mph - N/A   Clear
4:15 AM 35.8 °F 26.9 °F 18.0 °F 48% 29.54 in 10.0 mi SSW 13.8 mph - N/A   Clear
4:35 AM 34.7 °F 25.9 °F 18.1 °F 51% 29.54 in 10.0 mi SSW 12.7 mph - N/A   Clear
4:55 AM 34.0 °F 24.6 °F 18.0 °F 52% 29.54 in 10.0 mi SSW 13.8 mph - N/A   Clear
5:15 AM 34.2 °F 26.2 °F 18.0 °F 52% 29.53 in 10.0 mi SSW 10.4 mph - N/A   Clear
5:35 AM 34.3 °F 25.9 °F 18.0 °F 51% 29.52 in 10.0 mi SSW 11.5 mph - N/A   Clear
5:55 AM 37.0 °F 28.1 °F 18.0 °F 46% 29.51 in 10.0 mi SSW 15.0 mph - N/A   Clear
6:15 AM 37.9 °F 28.5 °F 18.0 °F 45% 29.50 in 10.0 mi South 17.3 mph - N/A   Clear
6:35 AM 38.3 °F 28.7 °F 18.5 °F 45% 29.50 in 10.0 mi South 18.4 mph 24.2 mph N/A   Clear
6:55 AM 36.7 °F 27.6 °F 19.0 °F 49% 29.50 in 10.0 mi SSW 15.0 mph - N/A   Clear
7:15 AM 36.9 °F 28.7 °F 19.2 °F 49% 29.49 in 10.0 mi South 12.7 mph - N/A   Clear
7:55 AM 38.7 °F 29.8 °F 19.8 °F 47% 29.49 in 10.0 mi South 16.1 mph - N/A   Clear
8:15 AM 40.1 °F 32.4 °F 20.1 °F 45% 29.48 in 10.0 mi South 13.8 mph - N/A   Clear
8:35 AM 39.9 °F 30.8 °F 20.3 °F 45% 29.48 in 10.0 mi SSW 18.4 mph 23.0 mph N/A   Clear
8:55 AM 40.3 °F 31.3 °F 21.0 °F 46% 29.48 in 10.0 mi SSW 18.4 mph 23.0 mph N/A   Clear
9:15 AM 40.6 °F 32.3 °F 21.9 °F 47% 29.48 in 10.0 mi South 16.1 mph - N/A   Clear
9:35 AM 42.8 °F 36.2 °F 22.5 °F 45% 29.47 in 10.0 mi South 12.7 mph - N/A   Clear
9:55 AM 45.3 °F 38.4 °F 22.8 °F 41% 29.47 in 10.0 mi SSW 16.1 mph - N/A   Clear
10:15 AM 49.1 °F - 21.9 °F 34% 29.47 in 10.0 mi SSW 13.8 mph 18.4 mph N/A   Clear
10:35 AM 50.0 °F - 22.1 °F 33% 29.47 in 10.0 mi South 12.7 mph - N/A   Clear
10:55 AM 52.0 °F - 21.2 °F 30% 29.46 in 10.0 mi South 15.0 mph 18.4 mph N/A   Clear
11:15 AM 53.1 °F - 20.7 °F 28% 29.45 in 10.0 mi South 16.1 mph - N/A   Clear
11:35 AM 53.6 °F - 21.2 °F 28% 29.44 in 10.0 mi South 15.0 mph - N/A   Clear
11:55 AM 54.0 °F - 22.5 °F 29% 29.45 in 10.0 mi SSW 21.9 mph 26.5 mph N/A   Clear
12:15 PM 54.1 °F - 22.5 °F 29% 29.43 in 10.0 mi South 16.1 mph 19.6 mph N/A   Clear
12:35 PM 55.6 °F - 23.5 °F 29% 29.40 in 10.0 mi South 17.3 mph 23.0 mph N/A   Clear
12:55 PM 56.5 °F - 23.7 °F 28% 29.40 in 10.0 mi South 16.1 mph - N/A   Clear
1:15 PM 56.5 °F - 23.2 °F 28% 29.37 in 10.0 mi South 20.7 mph 27.6 mph N/A   Clear
1:35 PM 56.5 °F - 23.5 °F 28% 29.36 in 10.0 mi SSE 20.7 mph 26.5 mph N/A   Clear
1:55 PM 58.5 °F - 24.1 °F 27% 29.36 in 10.0 mi South 21.9 mph 27.6 mph N/A   Clear
2:15 PM 58.5 °F - 26.1 °F 29% 29.35 in 10.0 mi South 21.9 mph 28.8 mph N/A   Clear
2:35 PM 59.4 °F - 23.7 °F 25% 29.33 in 10.0 mi South 19.6 mph 25.3 mph N/A   Clear
3:15 PM 55.8 °F - 26.4 °F 32% 29.31 in 10.0 mi SSE 19.6 mph 25.3 mph N/A   Clear
3:35 PM 54.7 °F - 27.0 °F 34% 29.31 in 10.0 mi South 13.8 mph 19.6 mph N/A   Clear
3:55 PM 54.5 °F - 27.3 °F 35% 29.30 in 10.0 mi SSE 20.7 mph - N/A   Clear
4:15 PM 53.6 °F - 28.4 °F 38% 29.29 in 10.0 mi South 19.6 mph 26.5 mph N/A   Clear
4:35 PM 52.7 °F - 29.7 °F 41% 29.29 in 10.0 mi South 19.6 mph 24.2 mph N/A   Clear
4:55 PM 51.8 °F - 31.3 °F 46% 29.30 in 10.0 mi South 15.0 mph 21.9 mph N/A   Clear
5:15 PM 50.7 °F - 32.0 °F 49% 29.31 in 10.0 mi South 18.4 mph 26.5 mph N/A   Clear
5:35 PM 50.0 °F - 32.7 °F 52% 29.31 in 10.0 mi South 13.8 mph 21.9 mph N/A   Clear
5:55 PM 49.1 °F - 32.5 °F 53% 29.30 in 10.0 mi South 12.7 mph 21.9 mph N/A   Clear
6:15 PM 47.5 °F - 32.9 °F 57% 29.30 in 10.0 mi South 16.1 mph - N/A   Clear
6:35 PM 46.4 °F 39.8 °F 33.1 °F 60% 29.29 in 10.0 mi South 16.1 mph 24.2 mph N/A   Clear
6:55 PM 45.9 °F 38.3 °F 33.8 °F 63% 29.28 in 10.0 mi South 19.6 mph 26.5 mph N/A   Clear
7:15 PM 45.7 °F 37.8 °F 34.0 °F 64% 29.26 in 10.0 mi South 20.7 mph 27.6 mph N/A   Clear
7:35 PM 45.5 °F 37.1 °F 34.0 °F 64% 29.26 in 10.0 mi SSW 23.0 mph 29.9 mph N/A   Clear
8:15 PM 44.6 °F 35.5 °F 34.0 °F 66% 29.25 in 10.0 mi SSW 25.3 mph 32.2 mph N/A   Clear
8:35 PM 44.8 °F 35.7 °F 34.3 °F 67% 29.25 in 10.0 mi SSW 25.3 mph 32.2 mph N/A   Clear
9:15 PM 43.7 °F 35.2 °F 34.2 °F 69% 29.24 in 10.0 mi SSW 20.7 mph - N/A   Clear
9:55 PM 42.8 °F 34.5 °F 34.3 °F 72% 29.24 in 10.0 mi SSW 18.4 mph - N/A   Clear
10:15 PM 42.4 °F 34.4 °F 34.2 °F 72% 29.24 in 10.0 mi SSW 17.3 mph - N/A   Clear
10:35 PM 42.4 °F 34.7 °F 34.2 °F 72% 29.23 in 10.0 mi SSW 16.1 mph - N/A   Clear
10:55 PM 41.0 °F 33.1 °F 33.8 °F 76% 29.23 in 10.0 mi SW 15.0 mph - N/A   Clear
11:15 PM 41.0 °F 32.5 °F 33.8 °F 76% 29.24 in 10.0 mi SW 17.3 mph - N/A   Clear
11:35 PM 41.0 °F 32.8 °F 33.8 °F 76% 29.23 in 10.0 mi SW 16.1 mph - N/A   Clear
11:55 PM 41.5 °F 33.8 °F 32.7 °F 71% 29.23 in 10.0 mi SW 15.0 mph - N/A   Clear